Time,TemperatureF,DewpointF,PressureIn,WindDirection,WindDirectionDegrees,WindSpeedMPH,WindSpeedGustMPH,Humidity,HourlyPrecipIn,Conditions,Clouds,dailyrainin,SoftwareType,DateUTC
2013-07-25 00:00:00,60.6,60.0,29.88,NNW,334,0.0,0.0,98,0.00,,---,0.00,VWS V14.01,2013-07-25 04:00:00,
2013-07-25 00:01:00,60.6,60.0,29.88,NNW,331,0.0,1.0,98,0.00,,---,0.00,VWS V14.01,2013-07-25 04:01:00,
2013-07-25 00:06:00,60.6,60.0,29.88,NNW,332,0.0,1.0,98,0.00,,---,0.00,VWS V14.01,2013-07-25 04:06:00,
2013-07-25 00:11:00,60.5,59.9,29.88,North,349,0.0,2.0,98,0.00,,---,0.00,VWS V14.01,2013-07-25 04:11:00,
2013-07-25 00:16:00,60.5,59.9,29.88,NNW,340,0.0,2.0,98,0.00,,---,0.00,VWS V14.01,2013-07-25 04:16:00,
2013-07-25 00:21:00,60.4,60.1,29.88,WNW,285,0.0,2.0,99,0.00,,---,0.00,VWS V14.01,2013-07-25 04:21:00,
2013-07-25 00:26:00,60.3,59.7,29.88,NW,321,0.0,2.0,98,0.00,,---,0.00,VWS V14.01,2013-07-25 04:26:00,
2013-07-25 00:31:00,60.3,60.0,29.88,West,268,0.0,0.0,99,0.00,,---,0.00,VWS V14.01,2013-07-25 04:31:00,
2013-07-25 00:37:00,60.2,59.9,29.89,NW,323,0.0,1.0,99,0.00,,---,0.00,VWS V14.01,2013-07-25 04:37:00,
2013-07-25 00:42:00,60.2,59.9,29.88,NW,323,0.0,1.0,99,0.00,,---,0.00,VWS V14.01,2013-07-25 04:42:00,
2013-07-25 00:47:00,60.1,59.8,29.88,NW,323,0.0,1.0,99,0.00,,---,0.00,VWS V14.01,2013-07-25 04:47:00,
2013-07-25 00:52:00,60.1,59.8,29.89,NW,321,0.0,1.0,99,0.00,,---,0.00,VWS V14.01,2013-07-25 04:52:00,
2013-07-25 00:57:00,60.1,59.8,29.88,NNW,345,0.0,1.0,99,0.00,,---,0.00,VWS V14.01,2013-07-25 04:57:00,
2013-07-25 01:02:00,60.0,59.7,29.88,NNW,346,0.0,1.0,99,0.00,,---,0.00,VWS V14.01,2013-07-25 05:02:00,
2013-07-25 01:07:00,59.9,59.6,29.89,NNW,346,0.0,1.0,99,0.00,,---,0.00,VWS V14.01,2013-07-25 05:07:00,
2013-07-25 01:12:00,59.9,59.6,29.89,NNW,342,1.0,1.0,99,0.00,,---,0.00,VWS V14.01,2013-07-25 05:12:00,
2013-07-25 01:17:00,59.8,59.5,29.88,NNW,342,0.0,1.0,99,0.00,,---,0.00,VWS V14.01,2013-07-25 05:17:00,
2013-07-25 01:22:00,59.8,59.5,29.88,NNW,342,0.0,1.0,99,0.00,,---,0.00,VWS V14.01,2013-07-25 05:22:00,
2013-07-25 01:27:00,59.8,59.5,29.88,WNW,292,0.0,1.0,99,0.00,,---,0.00,VWS V14.01,2013-07-25 05:27:00,
2013-07-25 01:32:00,59.7,59.4,29.88,WNW,292,0.0,1.0,99,0.00,,---,0.00,VWS V14.01,2013-07-25 05:32:00,
2013-07-25 01:37:00,59.7,59.4,29.88,WNW,290,0.0,1.0,99,0.00,,---,0.00,VWS V14.01,2013-07-25 05:37:00,
2013-07-25 01:42:00,59.6,59.3,29.88,WNW,290,0.0,1.0,99,0.00,,---,0.00,VWS V14.01,2013-07-25 05:42:00,
2013-07-25 01:47:00,59.5,59.2,29.88,WNW,290,0.0,1.0,99,0.00,,---,0.00,VWS V14.01,2013-07-25 05:47:00,
2013-07-25 01:52:00,59.3,59.0,29.88,WNW,290,0.0,1.0,99,0.00,,---,0.00,VWS V14.01,2013-07-25 05:52:00,
2013-07-25 01:57:00,59.2,58.9,29.88,NW,315,0.0,1.0,99,0.00,,---,0.00,VWS V14.01,2013-07-25 05:57:00,
2013-07-25 02:02:00,59.1,58.8,29.88,NW,316,0.0,0.0,99,0.00,,---,0.00,VWS V14.01,2013-07-25 06:02:00,
2013-07-25 02:07:00,59.0,58.7,29.88,WNW,295,0.0,1.0,99,0.00,,---,0.00,VWS V14.01,2013-07-25 06:07:00,
2013-07-25 02:12:00,58.9,58.6,29.88,North,6,0.0,1.0,99,0.00,,---,0.00,VWS V14.01,2013-07-25 06:12:00,
2013-07-25 02:17:00,58.8,58.5,29.88,North,4,0.0,1.0,99,0.00,,---,0.00,VWS V14.01,2013-07-25 06:17:00,
2013-07-25 02:22:00,58.6,58.3,29.88,North,3,0.0,1.0,99,0.00,,---,0.00,VWS V14.01,2013-07-25 06:22:00,
2013-07-25 02:27:00,58.5,58.2,29.88,North,4,0.0,1.0,99,0.00,,---,0.00,VWS V14.01,2013-07-25 06:27:00,
2013-07-25 02:32:00,58.3,58.0,29.88,North,3,0.0,0.0,99,0.00,,---,0.00,VWS V14.01,2013-07-25 06:32:00,
2013-07-25 02:37:00,58.2,57.9,29.87,North,4,0.0,1.0,99,0.00,,---,0.00,VWS V14.01,2013-07-25 06:37:00,
2013-07-25 02:42:00,58.2,57.9,29.87,North,1,0.0,1.0,99,0.00,,---,0.00,VWS V14.01,2013-07-25 06:42:00,
2013-07-25 02:47:00,58.2,57.9,29.87,North,3,0.0,1.0,99,0.00,,---,0.00,VWS V14.01,2013-07-25 06:47:00,
2013-07-25 02:52:00,58.1,57.8,29.87,North,1,0.0,1.0,99,0.00,,---,0.00,VWS V14.01,2013-07-25 06:52:00,
2013-07-25 02:57:00,58.1,57.8,29.87,North,1,0.0,1.0,99,0.00,,---,0.00,VWS V14.01,2013-07-25 06:57:00,
2013-07-25 03:02:00,58.1,57.8,29.88,North,356,0.0,1.0,99,0.00,,---,0.00,VWS V14.01,2013-07-25 07:02:00,
2013-07-25 03:07:00,58.2,58.2,29.88,NW,319,0.0,1.0,100,0.00,,---,0.00,VWS V14.01,2013-07-25 07:07:00,
2013-07-25 03:12:00,58.3,58.3,29.87,WNW,289,0.0,1.0,100,0.00,,---,0.00,VWS V14.01,2013-07-25 07:12:00,
2013-07-25 03:17:00,58.4,58.4,29.87,WNW,286,2.0,2.0,100,0.00,,---,0.00,VWS V14.01,2013-07-25 07:17:00,
2013-07-25 03:22:00,58.4,58.4,29.87,West,262,0.0,2.0,100,0.00,,---,0.00,VWS V14.01,2013-07-25 07:22:00,
2013-07-25 03:27:00,58.3,58.0,29.87,North,352,0.0,2.0,99,0.00,,---,0.00,VWS V14.01,2013-07-25 07:27:00,
2013-07-25 03:32:00,58.2,57.9,29.87,NW,326,0.0,1.0,99,0.00,,---,0.00,VWS V14.01,2013-07-25 07:32:00,
2013-07-25 03:37:00,58.1,57.8,29.87,NW,311,0.0,1.0,99,0.00,,---,0.00,VWS V14.01,2013-07-25 07:37:00,
2013-07-25 03:42:00,58.1,57.8,29.87,West,276,1.0,2.0,99,0.00,,---,0.00,VWS V14.01,2013-07-25 07:42:00,
2013-07-25 03:47:00,57.9,57.6,29.87,West,268,0.0,2.0,99,0.00,,---,0.00,VWS V14.01,2013-07-25 07:47:00,
2013-07-25 03:52:00,57.8,57.5,29.87,West,268,0.0,2.0,99,0.00,,---,0.00,VWS V14.01,2013-07-25 07:52:00,
2013-07-25 03:57:00,57.7,57.4,29.87,NNW,343,0.0,2.0,99,0.00,,---,0.00,VWS V14.01,2013-07-25 07:57:00,
2013-07-25 04:02:00,57.7,57.7,29.88,West,280,0.0,0.0,100,0.00,,---,0.00,VWS V14.01,2013-07-25 08:02:00,
2013-07-25 04:07:00,57.8,57.8,29.88,North,356,1.0,1.0,100,0.00,,---,0.00,VWS V14.01,2013-07-25 08:07:00,
2013-07-25 04:12:00,57.8,57.8,29.88,North,356,0.0,1.0,100,0.00,,---,0.00,VWS V14.01,2013-07-25 08:12:00,
2013-07-25 04:17:00,57.8,57.8,29.88,NNW,347,1.0,2.0,100,0.00,,---,0.00,VWS V14.01,2013-07-25 08:17:00,
2013-07-25 04:22:00,57.7,57.7,29.88,NNW,345,0.0,2.0,100,0.00,,---,0.00,VWS V14.01,2013-07-25 08:22:00,
2013-07-25 04:27:00,57.6,57.6,29.88,NNW,345,0.0,2.0,100,0.00,,---,0.00,VWS V14.01,2013-07-25 08:27:00,
2013-07-25 04:32:00,57.6,57.6,29.89,NE,36,1.0,2.0,100,0.00,,---,0.00,VWS V14.01,2013-07-25 08:32:00,
2013-07-25 04:37:00,57.5,57.5,29.89,NNW,347,0.0,2.0,100,0.00,,---,0.00,VWS V14.01,2013-07-25 08:37:00,
2013-07-25 04:42:00,57.4,57.4,29.89,ENE,73,0.0,2.0,100,0.00,,---,0.00,VWS V14.01,2013-07-25 08:42:00,
2013-07-25 04:47:00,57.2,57.2,29.89,ENE,74,0.0,2.0,100,0.00,,---,0.00,VWS V14.01,2013-07-25 08:47:00,
2013-07-25 04:52:00,57.2,57.2,29.89,ENE,74,0.0,2.0,100,0.00,,---,0.00,VWS V14.01,2013-07-25 08:52:00,
2013-07-25 04:57:00,57.2,57.2,29.89,ENE,74,0.0,2.0,100,0.00,,---,0.00,VWS V14.01,2013-07-25 08:57:00,
2013-07-25 05:02:00,57.2,57.2,29.89,WNW,302,0.0,0.0,100,0.00,,---,0.00,VWS V14.01,2013-07-25 09:02:00,
2013-07-25 05:07:00,57.1,57.1,29.89,WNW,302,0.0,0.0,100,0.00,,---,0.00,VWS V14.01,2013-07-25 09:07:00,
2013-07-25 05:12:00,57.1,57.1,29.89,WNW,302,0.0,0.0,100,0.00,,---,0.00,VWS V14.01,2013-07-25 09:12:00,
2013-07-25 05:17:00,57.1,57.1,29.89,WNW,302,0.0,0.0,100,0.00,,---,0.00,VWS V14.01,2013-07-25 09:17:00,
2013-07-25 05:22:00,57.1,57.1,29.89,WNW,302,0.0,0.0,100,0.00,,---,0.00,VWS V14.01,2013-07-25 09:22:00,
2013-07-25 05:27:00,56.8,56.5,29.89,WNW,302,1.0,1.0,99,0.00,,---,0.00,VWS V14.01,2013-07-25 09:27:00,
2013-07-25 05:32:00,56.5,56.2,29.89,WNW,302,0.0,1.0,99,0.00,,---,0.00,VWS V14.01,2013-07-25 09:32:00,
2013-07-25 05:37:00,56.2,55.9,29.90,NNW,344,0.0,1.0,99,0.00,,---,0.00,VWS V14.01,2013-07-25 09:37:00,
2013-07-25 05:42:00,56.0,55.7,29.90,NNW,345,0.0,1.0,99,0.00,,---,0.00,VWS V14.01,2013-07-25 09:42:00,
2013-07-25 05:47:00,55.7,55.4,29.90,NNW,344,0.0,1.0,99,0.00,,---,0.00,VWS V14.01,2013-07-25 09:47:00,
2013-07-25 05:52:00,55.4,55.1,29.89,NNW,344,0.0,1.0,99,0.00,,---,0.00,VWS V14.01,2013-07-25 09:52:00,
2013-07-25 05:57:00,55.2,54.9,29.90,NNW,345,0.0,1.0,99,0.00,,---,0.00,VWS V14.01,2013-07-25 09:57:00,
2013-07-25 06:02:00,55.1,55.1,29.90,NNW,344,0.0,0.0,100,0.00,,---,0.00,VWS V14.01,2013-07-25 10:02:00,
2013-07-25 06:07:00,55.1,55.1,29.90,NNW,339,1.0,1.0,100,0.00,,---,0.00,VWS V14.01,2013-07-25 10:07:00,
2013-07-25 06:12:00,55.0,55.0,29.90,NNW,339,0.0,1.0,100,0.00,,---,0.00,VWS V14.01,2013-07-25 10:12:00,
2013-07-25 06:17:00,54.8,54.8,29.90,NNW,338,0.0,1.0,100,0.00,,---,0.00,VWS V14.01,2013-07-25 10:17:00,
2013-07-25 06:22:00,54.7,54.7,29.90,NNW,338,0.0,1.0,100,0.00,,---,0.00,VWS V14.01,2013-07-25 10:22:00,
2013-07-25 06:27:00,54.6,54.6,29.91,NNW,338,0.0,1.0,100,0.00,,---,0.00,VWS V14.01,2013-07-25 10:27:00,
2013-07-25 06:32:00,54.4,54.4,29.91,NNW,338,0.0,0.0,100,0.00,,---,0.00,VWS V14.01,2013-07-25 10:32:00,
2013-07-25 06:37:00,54.4,54.4,29.91,NNW,338,0.0,0.0,100,0.00,,---,0.00,VWS V14.01,2013-07-25 10:37:00,
2013-07-25 06:42:00,54.5,54.5,29.91,NNW,338,0.0,1.0,100,0.00,,---,0.00,VWS V14.01,2013-07-25 10:42:00,
2013-07-25 06:47:00,54.5,54.5,29.91,NNW,338,0.0,1.0,100,0.00,,---,0.00,VWS V14.01,2013-07-25 10:47:00,
2013-07-25 06:52:00,54.7,54.7,29.92,NNW,339,0.0,1.0,100,0.00,,---,0.00,VWS V14.01,2013-07-25 10:52:00,
2013-07-25 06:57:00,55.0,55.0,29.92,NNW,328,0.0,2.0,100,0.00,,---,0.00,VWS V14.01,2013-07-25 10:57:00,
2013-07-25 07:02:00,55.5,55.5,29.92,North,356,0.0,1.0,100,0.00,,---,0.00,VWS V14.01,2013-07-25 11:02:00,
2013-07-25 07:07:00,55.8,55.8,29.92,NNW,347,2.0,4.0,100,0.00,,---,0.00,VWS V14.01,2013-07-25 11:07:00,
2013-07-25 07:12:00,56.0,56.0,29.92,North,357,0.0,4.0,100,0.00,,---,0.00,VWS V14.01,2013-07-25 11:12:00,
2013-07-25 07:17:00,56.0,56.0,29.92,NNW,348,0.0,4.0,100,0.00,,---,0.00,VWS V14.01,2013-07-25 11:17:00,
2013-07-25 07:23:00,56.1,56.1,29.92,North,353,0.0,4.0,100,0.00,,---,0.00,VWS V14.01,2013-07-25 11:23:00,
2013-07-25 07:28:00,56.3,56.3,29.93,West,281,0.0,4.0,100,0.00,,---,0.00,VWS V14.01,2013-07-25 11:28:00,
2013-07-25 07:33:00,56.4,56.4,29.93,West,281,0.0,1.0,100,0.00,,---,0.00,VWS V14.01,2013-07-25 11:33:00,
2013-07-25 07:38:00,56.4,56.4,29.93,NNE,23,1.0,3.0,100,0.00,,---,0.00,VWS V14.01,2013-07-25 11:38:00,
2013-07-25 07:43:00,56.3,56.3,29.93,North,352,0.0,4.0,100,0.00,,---,0.00,VWS V14.01,2013-07-25 11:43:00,
2013-07-25 07:48:00,56.4,56.4,29.93,NNE,29,0.0,4.0,100,0.00,,---,0.00,VWS V14.01,2013-07-25 11:48:00,
2013-07-25 07:53:00,56.4,56.4,29.93,West,280,0.0,4.0,100,0.00,,---,0.00,VWS V14.01,2013-07-25 11:53:00,
2013-07-25 07:57:00,56.6,56.6,29.93,NNW,348,0.0,4.0,100,0.00,,---,0.00,VWS V14.01,2013-07-25 11:57:00,
2013-07-25 08:03:00,56.7,56.7,29.93,NNW,342,0.0,0.0,100,0.00,,---,0.00,VWS V14.01,2013-07-25 12:03:00,
2013-07-25 08:08:00,56.7,56.7,29.93,SW,230,1.0,1.0,100,0.00,,---,0.00,VWS V14.01,2013-07-25 12:08:00,
2013-07-25 08:13:00,57.1,57.1,29.93,West,280,0.0,1.0,100,0.00,,---,0.00,VWS V14.01,2013-07-25 12:13:00,
2013-07-25 08:18:00,57.5,57.5,29.93,North,353,0.0,2.0,100,0.00,,---,0.00,VWS V14.01,2013-07-25 12:18:00,
2013-07-25 08:23:00,57.9,57.9,29.93,WNW,288,0.0,2.0,100,0.00,,---,0.00,VWS V14.01,2013-07-25 12:23:00,
2013-07-25 08:28:00,58.3,58.3,29.93,NNW,331,0.0,3.0,100,0.00,,---,0.00,VWS V14.01,2013-07-25 12:28:00,
2013-07-25 08:33:00,58.9,58.6,29.93,West,276,0.0,1.0,99,0.00,,---,0.00,VWS V14.01,2013-07-25 12:33:00,
2013-07-25 08:38:00,59.3,59.0,29.94,West,281,0.0,2.0,99,0.00,,---,0.00,VWS V14.01,2013-07-25 12:38:00,
2013-07-25 08:43:00,59.8,59.2,29.94,West,276,1.0,3.0,98,0.00,,---,0.00,VWS V14.01,2013-07-25 12:43:00,
2013-07-25 08:48:00,60.1,59.2,29.94,West,273,1.0,4.0,97,0.00,,---,0.00,VWS V14.01,2013-07-25 12:48:00,
2013-07-25 08:53:00,60.5,59.1,29.94,West,281,1.0,4.0,95,0.00,,---,0.00,VWS V14.01,2013-07-25 12:53:00,
2013-07-25 08:58:00,60.5,58.5,29.94,WSW,253,1.0,4.0,93,0.00,,---,0.00,VWS V14.01,2013-07-25 12:58:00,
2013-07-25 09:03:00,61.0,59.3,29.94,NW,318,1.0,3.0,94,0.00,,---,0.00,VWS V14.01,2013-07-25 13:03:00,
2013-07-25 09:08:00,61.9,59.2,29.94,WNW,283,1.0,3.0,91,0.00,,---,0.00,VWS V14.01,2013-07-25 13:08:00,
2013-07-25 09:13:00,62.9,59.9,29.95,NNW,338,1.0,3.0,90,0.00,,---,0.00,VWS V14.01,2013-07-25 13:13:00,
2013-07-25 09:18:00,63.3,59.4,29.95,NNW,334,1.0,3.0,87,0.00,,---,0.00,VWS V14.01,2013-07-25 13:18:00,
2013-07-25 09:23:00,63.5,59.6,29.95,WNW,284,2.0,4.0,87,0.00,,---,0.00,VWS V14.01,2013-07-25 13:23:00,
2013-07-25 09:28:00,63.7,59.4,29.95,SSW,210,2.0,6.0,86,0.00,,---,0.00,VWS V14.01,2013-07-25 13:28:00,
2013-07-25 09:33:00,63.5,59.2,29.95,WNW,303,3.0,7.0,86,0.00,,---,0.00,VWS V14.01,2013-07-25 13:33:00,
2013-07-25 09:38:00,63.0,58.8,29.95,NW,304,0.0,7.0,86,0.00,,---,0.00,VWS V14.01,2013-07-25 13:38:00,
2013-07-25 09:43:00,62.9,58.7,29.95,West,280,2.0,7.0,86,0.00,,---,0.00,VWS V14.01,2013-07-25 13:43:00,
2013-07-25 09:48:00,63.9,59.6,29.95,West,276,1.0,7.0,86,0.00,,---,0.00,VWS V14.01,2013-07-25 13:48:00,
2013-07-25 09:53:00,63.7,58.5,29.95,SW,236,2.0,7.0,83,0.00,,---,0.00,VWS V14.01,2013-07-25 13:53:00,
2013-07-25 09:58:00,63.1,57.2,29.95,WSW,256,3.0,7.0,81,0.00,,---,0.00,VWS V14.01,2013-07-25 13:58:00,
2013-07-25 10:03:00,62.6,57.0,29.95,WNW,284,1.0,3.0,82,0.00,,---,0.00,VWS V14.01,2013-07-25 14:03:00,
2013-07-25 10:08:00,63.1,56.8,29.95,West,264,2.0,3.0,80,0.00,,---,0.00,VWS V14.01,2013-07-25 14:08:00,
2013-07-25 10:13:00,63.6,57.3,29.95,NW,314,1.0,4.0,80,0.00,,---,0.00,VWS V14.01,2013-07-25 14:13:00,
2013-07-25 10:18:00,64.0,58.1,29.95,North,354,1.0,4.0,81,0.00,,---,0.00,VWS V14.01,2013-07-25 14:18:00,
2013-07-25 10:23:00,63.9,57.6,29.95,WNW,293,1.0,6.0,80,0.00,,---,0.00,VWS V14.01,2013-07-25 14:23:00,
2013-07-25 10:28:00,63.9,58.0,29.96,West,281,0.0,6.0,81,0.00,,---,0.00,VWS V14.01,2013-07-25 14:28:00,
2013-07-25 10:33:00,64.4,57.8,29.96,NNW,329,0.0,3.0,79,0.00,,---,0.00,VWS V14.01,2013-07-25 14:33:00,
2013-07-25 10:38:00,64.8,57.4,29.96,West,278,2.0,5.0,77,0.00,,---,0.00,VWS V14.01,2013-07-25 14:38:00,
2013-07-25 10:43:00,64.9,57.9,29.96,North,6,2.0,6.0,78,0.00,,---,0.00,VWS V14.01,2013-07-25 14:43:00,
2013-07-25 10:48:00,65.2,58.2,29.95,NNW,346,2.0,6.0,78,0.00,,---,0.00,VWS V14.01,2013-07-25 14:48:00,
2013-07-25 10:53:00,65.7,57.2,29.95,NNW,334,1.0,6.0,74,0.00,,---,0.00,VWS V14.01,2013-07-25 14:53:00,
2013-07-25 10:58:00,65.5,57.4,29.96,NE,35,1.0,6.0,75,0.00,,---,0.00,VWS V14.01,2013-07-25 14:58:00,
2013-07-25 11:03:00,65.3,57.2,29.96,WNW,285,1.0,6.0,75,0.00,,---,0.00,VWS V14.01,2013-07-25 15:03:00,
2013-07-25 11:08:00,65.8,57.3,29.95,NE,35,2.0,6.0,74,0.00,,---,0.00,VWS V14.01,2013-07-25 15:08:00,
2013-07-25 11:13:00,65.9,57.4,29.95,WNW,302,2.0,6.0,74,0.00,,---,0.00,VWS V14.01,2013-07-25 15:13:00,
2013-07-25 11:18:00,65.7,57.2,29.95,NNE,18,2.0,6.0,74,0.00,,---,0.00,VWS V14.01,2013-07-25 15:18:00,
2013-07-25 11:23:00,65.6,57.5,29.95,WSW,248,4.0,6.0,75,0.00,,---,0.00,VWS V14.01,2013-07-25 15:23:00,
2013-07-25 11:28:00,65.6,57.5,29.95,NNW,338,4.0,6.0,75,0.00,,---,0.00,VWS V14.01,2013-07-25 15:28:00,
2013-07-25 11:33:00,65.6,57.1,29.95,WSW,238,2.0,5.0,74,0.00,,---,0.00,VWS V14.01,2013-07-25 15:33:00,
2013-07-25 11:38:00,66.1,58.0,29.95,NE,37,2.0,5.0,75,0.00,,---,0.00,VWS V14.01,2013-07-25 15:38:00,
2013-07-25 11:43:00,66.5,58.0,29.95,SW,231,0.0,5.0,74,0.00,,---,0.00,VWS V14.01,2013-07-25 15:43:00,
2013-07-25 11:48:00,67.0,57.7,29.95,West,269,3.0,5.0,72,0.00,,---,0.00,VWS V14.01,2013-07-25 15:48:00,
2013-07-25 11:53:00,67.4,56.5,29.95,WSW,256,1.0,6.0,68,0.00,,---,0.00,VWS V14.01,2013-07-25 15:53:00,
2013-07-25 11:58:00,67.2,57.9,29.96,South,186,2.0,6.0,72,0.00,,---,0.00,VWS V14.01,2013-07-25 15:58:00,
2013-07-25 12:03:00,67.7,58.4,29.96,West,263,5.0,6.0,72,0.00,,---,0.00,VWS V14.01,2013-07-25 16:03:00,
2013-07-25 12:04:00,67.7,58.4,29.96,SW,236,5.0,6.0,72,0.00,,---,0.00,VWS V14.01,2013-07-25 16:04:00,
2013-07-25 12:09:00,67.3,57.2,29.95,North,354,3.0,6.0,70,0.00,,---,0.00,VWS V14.01,2013-07-25 16:09:00,
2013-07-25 12:14:00,67.3,57.2,29.95,SSW,204,3.0,6.0,70,0.00,,---,0.00,VWS V14.01,2013-07-25 16:14:00,
2013-07-25 12:19:00,67.3,57.6,29.95,North,360,1.0,7.0,71,0.00,,---,0.00,VWS V14.01,2013-07-25 16:19:00,
2013-07-25 12:24:00,67.9,58.2,29.95,WNW,283,3.0,7.0,71,0.00,,---,0.00,VWS V14.01,2013-07-25 16:24:00,
2013-07-25 12:29:00,68.0,57.5,29.95,NE,37,2.0,7.0,69,0.00,,---,0.00,VWS V14.01,2013-07-25 16:29:00,
2013-07-25 12:34:00,67.7,56.8,29.96,West,281,2.0,10.0,68,0.00,,---,0.00,VWS V14.01,2013-07-25 16:34:00,
2013-07-25 12:39:00,67.2,55.5,29.96,SSW,198,2.0,10.0,66,0.00,,---,0.00,VWS V14.01,2013-07-25 16:39:00,
2013-07-25 12:44:00,67.7,57.2,29.96,North,356,3.0,10.0,69,0.00,,---,0.00,VWS V14.01,2013-07-25 16:44:00,
2013-07-25 12:49:00,68.1,56.7,29.96,NNW,342,4.0,10.0,67,0.00,,---,0.00,VWS V14.01,2013-07-25 16:49:00,
2013-07-25 12:54:00,67.9,57.0,29.97,SW,225,2.0,10.0,68,0.00,,---,0.00,VWS V14.01,2013-07-25 16:54:00,
2013-07-25 12:59:00,68.3,56.9,29.97,West,266,2.0,10.0,67,0.00,,---,0.00,VWS V14.01,2013-07-25 16:59:00,
2013-07-25 13:04:00,68.5,57.1,29.96,NW,314,1.0,5.0,67,0.00,,---,0.00,VWS V14.01,2013-07-25 17:04:00,
2013-07-25 13:09:00,68.6,59.2,29.97,West,267,2.0,7.0,72,0.00,,---,0.00,VWS V14.01,2013-07-25 17:09:00,
2013-07-25 13:14:00,68.9,57.1,29.97,NW,315,0.0,7.0,66,0.00,,---,0.00,VWS V14.01,2013-07-25 17:14:00,
2013-07-25 13:19:00,69.3,57.9,29.97,WNW,293,3.0,7.0,67,0.00,,---,0.00,VWS V14.01,2013-07-25 17:19:00,
2013-07-25 13:24:00,69.6,57.3,29.96,WSW,243,2.0,7.0,65,0.00,,---,0.00,VWS V14.01,2013-07-25 17:24:00,
2013-07-25 13:29:00,69.5,58.1,29.96,WNW,294,3.0,7.0,67,0.00,,---,0.00,VWS V14.01,2013-07-25 17:29:00,
2013-07-25 13:34:00,69.1,57.3,29.96,SW,219,1.0,7.0,66,0.00,,---,0.00,VWS V14.01,2013-07-25 17:34:00,
2013-07-25 13:39:00,69.7,57.4,29.97,WNW,283,2.0,7.0,65,0.00,,---,0.00,VWS V14.01,2013-07-25 17:39:00,
2013-07-25 13:44:00,70.1,58.7,29.97,WNW,293,1.0,7.0,67,0.00,,---,0.00,VWS V14.01,2013-07-25 17:44:00,
2013-07-25 13:49:00,70.1,56.9,29.97,ESE,115,1.0,7.0,63,0.00,,---,0.00,VWS V14.01,2013-07-25 17:49:00,
2013-07-25 13:54:00,71.0,60.3,29.97,WNW,291,2.0,7.0,69,0.00,,---,0.00,VWS V14.01,2013-07-25 17:54:00,
2013-07-25 13:59:00,70.8,58.0,29.97,NNE,20,4.0,7.0,64,0.00,,---,0.00,VWS V14.01,2013-07-25 17:59:00,
2013-07-25 14:04:00,70.2,58.3,29.97,NE,37,2.0,6.0,66,0.00,,---,0.00,VWS V14.01,2013-07-25 18:04:00,
2013-07-25 14:09:00,69.8,57.9,29.97,SE,143,2.0,6.0,66,0.00,,---,0.00,VWS V14.01,2013-07-25 18:09:00,
2013-07-25 14:14:00,70.0,60.2,29.97,North,350,3.0,6.0,71,0.00,,---,0.00,VWS V14.01,2013-07-25 18:14:00,
2013-07-25 14:19:00,70.1,57.8,29.97,NW,320,2.0,6.0,65,0.00,,---,0.00,VWS V14.01,2013-07-25 18:19:00,
2013-07-25 14:24:00,70.0,58.1,29.97,NNE,29,4.0,6.0,66,0.00,,---,0.00,VWS V14.01,2013-07-25 18:24:00,
2013-07-25 14:29:00,69.6,57.3,29.97,ENE,65,0.0,6.0,65,0.00,,---,0.00,VWS V14.01,2013-07-25 18:29:00,
2013-07-25 14:34:00,70.1,58.2,29.96,SSW,206,1.0,4.0,66,0.00,,---,0.00,VWS V14.01,2013-07-25 18:34:00,
2013-07-25 14:39:00,70.1,57.8,29.96,West,280,0.0,4.0,65,0.00,,---,0.00,VWS V14.01,2013-07-25 18:39:00,
2013-07-25 14:44:00,70.1,56.9,29.96,SSW,200,4.0,8.0,63,0.00,,---,0.00,VWS V14.01,2013-07-25 18:44:00,
2013-07-25 14:49:00,71.1,59.2,29.97,North,11,5.0,9.0,66,0.00,,---,0.00,VWS V14.01,2013-07-25 18:49:00,
2013-07-25 14:54:00,71.0,58.2,29.97,NNE,32,2.0,9.0,64,0.00,,---,0.00,VWS V14.01,2013-07-25 18:54:00,
2013-07-25 14:59:00,71.0,57.3,29.96,NE,39,2.0,9.0,62,0.00,,---,0.00,VWS V14.01,2013-07-25 18:59:00,
2013-07-25 15:04:00,71.2,56.6,29.96,West,279,2.0,7.0,60,0.00,,---,0.00,VWS V14.01,2013-07-25 19:04:00,
2013-07-25 15:09:00,71.4,57.3,29.96,WNW,302,3.0,8.0,61,0.00,,---,0.00,VWS V14.01,2013-07-25 19:09:00,
2013-07-25 15:14:00,71.6,59.7,29.97,WNW,283,1.0,8.0,66,0.00,,---,0.00,VWS V14.01,2013-07-25 19:14:00,
2013-07-25 15:19:00,71.2,60.5,29.96,West,281,3.0,8.0,69,0.00,,---,0.00,VWS V14.01,2013-07-25 19:19:00,
2013-07-25 15:24:00,71.2,58.4,29.97,WNW,283,3.0,8.0,64,0.00,,---,0.00,VWS V14.01,2013-07-25 19:24:00,
2013-07-25 15:29:00,70.9,57.7,29.97,WSW,256,2.0,8.0,63,0.00,,---,0.00,VWS V14.01,2013-07-25 19:29:00,
2013-07-25 15:34:00,71.0,57.3,29.97,WNW,300,1.0,6.0,62,0.00,,---,0.00,VWS V14.01,2013-07-25 19:34:00,
2013-07-25 15:39:00,71.2,58.0,29.97,NNE,20,1.0,6.0,63,0.00,,---,0.00,VWS V14.01,2013-07-25 19:39:00,
2013-07-25 15:44:00,70.5,57.8,29.97,ESE,115,2.0,7.0,64,0.00,,---,0.00,VWS V14.01,2013-07-25 19:44:00,
2013-07-25 15:49:00,70.7,57.1,29.97,WNW,284,1.0,7.0,62,0.00,,---,0.00,VWS V14.01,2013-07-25 19:49:00,
2013-07-25 15:54:00,70.8,57.6,29.97,WNW,298,1.0,7.0,63,0.00,,---,0.00,VWS V14.01,2013-07-25 19:54:00,
2013-07-25 15:59:00,71.3,58.5,29.97,NW,315,3.0,3.0,64,0.00,,---,0.00,VWS V14.01,2013-07-25 19:59:00,
2013-07-25 16:04:00,71.1,58.3,29.97,ENE,68,2.0,7.0,64,0.00,,---,0.00,VWS V14.01,2013-07-25 20:04:00,
2013-07-25 16:09:00,71.2,58.0,29.97,NNE,16,3.0,7.0,63,0.00,,---,0.00,VWS V14.01,2013-07-25 20:09:00,
2013-07-25 16:14:00,71.2,59.3,29.97,WNW,284,2.0,7.0,66,0.00,,---,0.00,VWS V14.01,2013-07-25 20:14:00,
2013-07-25 16:19:00,71.3,58.9,29.97,North,350,4.0,7.0,65,0.00,,---,0.00,VWS V14.01,2013-07-25 20:19:00,
2013-07-25 16:24:00,71.3,58.1,29.97,NNW,334,5.0,7.0,63,0.00,,---,0.00,VWS V14.01,2013-07-25 20:24:00,
2013-07-25 16:29:00,71.3,57.6,29.97,North,4,2.0,3.0,62,0.00,,---,0.00,VWS V14.01,2013-07-25 20:29:00,
2013-07-25 16:34:00,71.0,57.8,29.97,West,281,3.0,5.0,63,0.00,,---,0.00,VWS V14.01,2013-07-25 20:34:00,
2013-07-25 16:39:00,70.8,59.7,29.97,West,275,1.0,7.0,68,0.00,,---,0.00,VWS V14.01,2013-07-25 20:39:00,
2013-07-25 16:44:00,71.3,60.2,29.97,WNW,283,3.0,7.0,68,0.00,,---,0.00,VWS V14.01,2013-07-25 20:44:00,
2013-07-25 16:49:00,71.6,59.2,29.97,NNW,345,2.0,7.0,65,0.00,,---,0.00,VWS V14.01,2013-07-25 20:49:00,
2013-07-25 16:55:00,71.7,58.9,29.96,NW,314,4.0,7.0,64,0.00,,---,0.00,VWS V14.01,2013-07-25 20:55:00,
2013-07-25 17:00:00,71.6,58.3,29.96,West,276,3.0,6.0,63,0.00,,---,0.00,VWS V14.01,2013-07-25 21:00:00,
2013-07-25 17:05:00,71.3,58.1,29.97,NNE,27,2.0,7.0,63,0.00,,---,0.00,VWS V14.01,2013-07-25 21:05:00,
2013-07-25 17:10:00,70.9,57.7,29.97,NW,326,2.0,7.0,63,0.00,,---,0.00,VWS V14.01,2013-07-25 21:10:00,
2013-07-25 17:15:00,71.2,58.8,29.97,North,352,6.0,7.0,65,0.00,,---,0.00,VWS V14.01,2013-07-25 21:15:00,
2013-07-25 17:20:00,71.1,59.2,29.97,NNE,27,2.0,7.0,66,0.00,,---,0.00,VWS V14.01,2013-07-25 21:20:00,
2013-07-25 17:25:00,70.9,58.6,29.97,NE,50,4.0,7.0,65,0.00,,---,0.00,VWS V14.01,2013-07-25 21:25:00,
2013-07-25 17:30:00,71.0,59.5,29.97,WNW,302,1.0,4.0,67,0.00,,---,0.00,VWS V14.01,2013-07-25 21:30:00,
2013-07-25 17:35:00,70.9,58.1,29.97,WNW,290,3.0,6.0,64,0.00,,---,0.00,VWS V14.01,2013-07-25 21:35:00,
2013-07-25 17:40:00,70.6,58.3,29.98,SW,236,2.0,7.0,65,0.00,,---,0.00,VWS V14.01,2013-07-25 21:40:00,
2013-07-25 17:45:00,70.7,58.8,29.98,West,271,1.0,7.0,66,0.00,,---,0.00,VWS V14.01,2013-07-25 21:45:00,
2013-07-25 17:50:00,70.6,57.4,29.98,NNE,32,1.0,8.0,63,0.00,,---,0.00,VWS V14.01,2013-07-25 21:50:00,
2013-07-25 17:55:00,70.7,58.4,29.98,NNW,334,1.0,8.0,65,0.00,,---,0.00,VWS V14.01,2013-07-25 21:55:00,
2013-07-25 18:00:00,70.7,58.8,29.98,NNE,13,0.0,2.0,66,0.00,,---,0.00,VWS V14.01,2013-07-25 22:00:00,
2013-07-25 18:05:00,70.7,59.6,29.98,WNW,297,1.0,6.0,68,0.00,,---,0.00,VWS V14.01,2013-07-25 22:05:00,
2013-07-25 18:10:00,70.5,59.0,29.98,NW,321,3.0,8.0,67,0.00,,---,0.00,VWS V14.01,2013-07-25 22:10:00,
2013-07-25 18:15:00,70.0,58.1,29.98,West,263,1.0,8.0,66,0.00,,---,0.00,VWS V14.01,2013-07-25 22:15:00,
2013-07-25 18:20:00,69.5,58.1,29.98,SW,222,0.0,8.0,67,0.00,,---,0.00,VWS V14.01,2013-07-25 22:20:00,
2013-07-25 18:25:00,69.2,58.6,29.98,North,349,3.0,8.0,69,0.00,,---,0.00,VWS V14.01,2013-07-25 22:25:00,
2013-07-25 18:30:00,68.8,58.2,29.99,NE,36,1.0,1.0,69,0.00,,---,0.00,VWS V14.01,2013-07-25 22:30:00,
2013-07-25 18:35:00,69.2,58.6,29.99,WNW,287,2.0,6.0,69,0.00,,---,0.00,VWS V14.01,2013-07-25 22:35:00,
2013-07-25 18:40:00,69.5,57.7,29.99,WNW,290,1.0,6.0,66,0.00,,---,0.00,VWS V14.01,2013-07-25 22:40:00,
2013-07-25 18:45:00,69.2,58.2,30.00,NNE,33,2.0,6.0,68,0.00,,---,0.00,VWS V14.01,2013-07-25 22:45:00,
2013-07-25 18:50:00,68.9,57.9,30.00,WNW,297,2.0,6.0,68,0.00,,---,0.00,VWS V14.01,2013-07-25 22:50:00,
2013-07-25 18:55:00,69.0,58.0,30.00,North,356,0.0,6.0,68,0.00,,---,0.00,VWS V14.01,2013-07-25 22:55:00,
2013-07-25 19:00:00,69.2,58.6,30.00,WNW,297,3.0,4.0,69,0.00,,---,0.00,VWS V14.01,2013-07-25 23:00:00,
2013-07-25 19:05:00,68.9,57.9,30.00,WNW,290,0.0,5.0,68,0.00,,---,0.00,VWS V14.01,2013-07-25 23:05:00,
2013-07-25 19:10:00,68.9,58.3,30.00,NNE,12,2.0,5.0,69,0.00,,---,0.00,VWS V14.01,2013-07-25 23:10:00,
2013-07-25 19:15:00,68.3,57.3,30.00,WNW,291,3.0,5.0,68,0.00,,---,0.00,VWS V14.01,2013-07-25 23:15:00,
2013-07-25 19:20:00,67.9,57.8,30.00,North,8,1.0,5.0,70,0.00,,---,0.00,VWS V14.01,2013-07-25 23:20:00,
2013-07-25 19:25:00,67.6,57.5,30.00,North,352,4.0,5.0,70,0.00,,---,0.00,VWS V14.01,2013-07-25 23:25:00,
2013-07-25 19:30:00,67.2,57.1,30.00,WNW,297,0.0,1.0,70,0.00,,---,0.00,VWS V14.01,2013-07-25 23:30:00,
2013-07-25 19:35:00,67.1,57.4,30.00,NNW,333,0.0,1.0,71,0.00,,---,0.00,VWS V14.01,2013-07-25 23:35:00,
2013-07-25 19:40:00,66.4,57.5,30.00,North,356,0.0,5.0,73,0.00,,---,0.00,VWS V14.01,2013-07-25 23:40:00,
2013-07-25 19:45:00,65.6,57.1,30.00,NNW,328,0.0,5.0,74,0.00,,---,0.00,VWS V14.01,2013-07-25 23:45:00,
2013-07-25 19:50:00,65.0,56.5,30.00,NNW,344,2.0,5.0,74,0.00,,---,0.00,VWS V14.01,2013-07-25 23:50:00,
2013-07-25 19:55:00,64.5,56.4,30.00,NNW,338,0.0,5.0,75,0.00,,---,0.00,VWS V14.01,2013-07-25 23:55:00,
2013-07-25 20:00:00,64.1,56.0,30.00,North,360,0.0,2.0,75,0.00,,---,0.00,VWS V14.01,2013-07-26 00:00:00,
2013-07-25 20:05:00,63.8,56.1,30.00,NNW,338,0.0,5.0,76,0.00,,---,0.00,VWS V14.01,2013-07-26 00:05:00,
2013-07-25 20:10:00,63.4,56.1,30.01,NNW,329,0.0,5.0,77,0.00,,---,0.00,VWS V14.01,2013-07-26 00:10:00,
2013-07-25 20:15:00,63.0,56.0,30.01,NNW,338,0.0,5.0,78,0.00,,---,0.00,VWS V14.01,2013-07-26 00:15:00,
2013-07-25 20:20:00,62.6,56.0,30.00,WNW,300,0.0,5.0,79,0.00,,---,0.00,VWS V14.01,2013-07-26 00:20:00,
2013-07-25 20:25:00,62.3,56.1,30.01,WNW,300,0.0,5.0,80,0.00,,---,0.00,VWS V14.01,2013-07-26 00:25:00,
2013-07-25 20:30:00,61.8,55.9,30.01,NNW,344,0.0,1.0,81,0.00,,---,0.00,VWS V14.01,2013-07-26 00:30:00,
2013-07-25 20:35:00,61.4,55.5,30.01,NNW,344,0.0,1.0,81,0.00,,---,0.00,VWS V14.01,2013-07-26 00:35:00,
2013-07-25 20:40:00,61.2,55.7,30.01,NW,324,0.0,1.0,82,0.00,,---,0.00,VWS V14.01,2013-07-26 00:40:00,
2013-07-25 20:45:00,60.7,55.5,30.01,NW,324,0.0,1.0,83,0.00,,---,0.00,VWS V14.01,2013-07-26 00:45:00,
2013-07-25 20:50:00,60.1,55.3,30.01,NW,324,0.0,1.0,84,0.00,,---,0.00,VWS V14.01,2013-07-26 00:50:00,
2013-07-25 20:56:00,59.7,55.5,30.01,NW,325,0.0,1.0,86,0.00,,---,0.00,VWS V14.01,2013-07-26 00:56:00,
2013-07-25 21:01:00,59.1,55.5,30.01,NW,324,0.0,0.0,88,0.00,,---,0.00,VWS V14.01,2013-07-26 01:01:00,
2013-07-25 21:06:00,58.6,55.4,30.01,NW,324,0.0,0.0,89,0.00,,---,0.00,VWS V14.01,2013-07-26 01:06:00,
2013-07-25 21:11:00,58.2,55.3,30.01,NW,325,0.0,0.0,90,0.00,,---,0.00,VWS V14.01,2013-07-26 01:11:00,
2013-07-25 21:16:00,58.3,55.4,30.02,NW,324,0.0,1.0,90,0.00,,---,0.00,VWS V14.01,2013-07-26 01:16:00,
2013-07-25 21:21:00,58.6,55.7,30.02,WNW,303,0.0,1.0,90,0.00,,---,0.00,VWS V14.01,2013-07-26 01:21:00,
2013-07-25 21:26:00,58.6,55.7,30.02,NNW,341,0.0,2.0,90,0.00,,---,0.00,VWS V14.01,2013-07-26 01:26:00,
2013-07-25 21:31:00,58.6,55.7,30.02,NNW,342,0.0,0.0,90,0.00,,---,0.00,VWS V14.01,2013-07-26 01:31:00,
2013-07-25 21:36:00,58.5,55.6,30.02,NNW,342,0.0,1.0,90,0.00,,---,0.00,VWS V14.01,2013-07-26 01:36:00,
2013-07-25 21:41:00,58.3,55.4,30.02,NNW,342,0.0,1.0,90,0.00,,---,0.00,VWS V14.01,2013-07-26 01:41:00,
2013-07-25 21:46:00,58.0,55.4,30.02,NNW,342,0.0,1.0,91,0.00,,---,0.00,VWS V14.01,2013-07-26 01:46:00,
2013-07-25 21:51:00,57.9,55.3,30.03,NNW,338,0.0,1.0,91,0.00,,---,0.00,VWS V14.01,2013-07-26 01:51:00,
2013-07-25 21:56:00,57.8,55.5,30.03,NW,326,0.0,1.0,92,0.00,,---,0.00,VWS V14.01,2013-07-26 01:56:00,
2013-07-25 22:01:00,57.7,55.4,30.04,NW,326,0.0,0.0,92,0.00,,---,0.00,VWS V14.01,2013-07-26 02:01:00,
2013-07-25 22:06:00,57.4,55.1,30.04,NW,326,0.0,0.0,92,0.00,,---,0.00,VWS V14.01,2013-07-26 02:06:00,
2013-07-25 22:11:00,57.1,55.1,30.04,NW,326,0.0,0.0,93,0.00,,---,0.00,VWS V14.01,2013-07-26 02:11:00,
2013-07-25 22:16:00,56.7,54.7,30.04,NW,326,0.0,0.0,93,0.00,,---,0.00,VWS V14.01,2013-07-26 02:16:00,
2013-07-25 22:21:00,56.6,55.2,30.05,NW,326,0.0,0.0,95,0.00,,---,0.00,VWS V14.01,2013-07-26 02:21:00,
2013-07-25 22:26:00,56.5,55.1,30.04,NW,326,0.0,0.0,95,0.00,,---,0.00,VWS V14.01,2013-07-26 02:26:00,
2013-07-25 22:31:00,56.3,54.6,30.05,NW,326,0.0,0.0,94,0.00,,---,0.00,VWS V14.01,2013-07-26 02:31:00,
2013-07-25 22:36:00,56.0,54.6,30.04,ESE,110,0.0,1.0,95,0.00,,---,0.00,VWS V14.01,2013-07-26 02:36:00,
2013-07-25 22:41:00,55.6,54.2,30.04,ESE,110,0.0,1.0,95,0.00,,---,0.00,VWS V14.01,2013-07-26 02:41:00,
2013-07-25 22:46:00,55.5,54.1,30.04,ESE,110,0.0,1.0,95,0.00,,---,0.00,VWS V14.01,2013-07-26 02:46:00,
2013-07-25 22:52:00,55.2,53.8,30.04,ESE,110,0.0,1.0,95,0.00,,---,0.00,VWS V14.01,2013-07-26 02:52:00,
2013-07-25 22:57:00,55.0,53.9,30.04,ESE,110,0.0,1.0,96,0.00,,---,0.00,VWS V14.01,2013-07-26 02:57:00,
2013-07-25 23:02:00,54.9,54.1,30.05,SE,132,0.0,0.0,97,0.00,,---,0.00,VWS V14.01,2013-07-26 03:02:00,
2013-07-25 23:07:00,54.8,54.0,30.04,SE,132,0.0,0.0,97,0.00,,---,0.00,VWS V14.01,2013-07-26 03:07:00,
2013-07-25 23:12:00,54.6,53.8,30.04,SE,132,0.0,0.0,97,0.00,,---,0.00,VWS V14.01,2013-07-26 03:12:00,
2013-07-25 23:17:00,54.5,53.7,30.04,SE,132,0.0,0.0,97,0.00,,---,0.00,VWS V14.01,2013-07-26 03:17:00,
2013-07-25 23:22:00,54.3,53.5,30.05,SE,132,0.0,0.0,97,0.00,,---,0.00,VWS V14.01,2013-07-26 03:22:00,
2013-07-25 23:27:00,54.1,53.3,30.05,SE,132,0.0,0.0,97,0.00,,---,0.00,VWS V14.01,2013-07-26 03:27:00,
2013-07-25 23:32:00,53.9,53.1,30.05,SE,132,0.0,0.0,97,0.00,,---,0.00,VWS V14.01,2013-07-26 03:32:00,
2013-07-25 23:37:00,53.8,53.0,30.05,SE,132,0.0,0.0,97,0.00,,---,0.00,VWS V14.01,2013-07-26 03:37:00,
2013-07-25 23:42:00,53.5,52.7,30.06,SE,132,0.0,0.0,97,0.00,,---,0.00,VWS V14.01,2013-07-26 03:42:00,
2013-07-25 23:47:00,53.2,52.4,30.06,SE,132,0.0,0.0,97,0.00,,---,0.00,VWS V14.01,2013-07-26 03:47:00,
2013-07-25 23:52:00,53.4,52.8,30.06,SE,132,0.0,0.0,98,0.00,,---,0.00,VWS V14.01,2013-07-26 03:52:00,
2013-07-25 23:57:00,53.7,53.4,30.06,SE,132,0.0,0.0,99,0.00,,---,0.00,VWS V14.01,2013-07-26 03:57:00,